CW5494 Weather Reports


Display with metric or nautical units.
time (UTC)temp
F
wind
direction
speed
MPH
gust
MPH
rain 1hr
in
rain 24hr
in
rain mn
in
humidity
%
barometer
mb
20181219161647 38 120 0.0 2.0 0.00 0.00 0.00 55 1016.8
20181219161048 38 94 0.0 4.0 0.00 0.00 0.00 60 1017.0
20181219160547 37 145 0.0 2.0 0.00 0.00 0.00 60 1017.0
20181219160047 37 147 0.0 2.0 0.00 0.00 0.00 59 1017.0
20181219155452 37 108 0.0 2.0 0.00 0.00 0.00 63 1017.1
20181219154952 36 107 0.0 1.0 0.00 0.00 0.00 65 1017.2
20181219154452 36 126 0.0 1.0 0.00 0.00 0.00 64 1017.2
20181219153951 36 105 0.0 2.0 0.00 0.00 0.00 65 1017.5
20181219153451 35 125 0.0 2.0 0.00 0.00 0.00 65 1017.5
20181219152951 35 106 0.0 1.0 0.00 0.00 0.00 66 1017.5
20181219152451 35 103 0.0 4.0 0.00 0.00 0.00 77 1017.5
20181219151950 34 108 0.0 3.0 0.00 0.00 0.00 77 1017.5
20181219151449 34 139 0.0 2.0 0.00 0.00 0.00 77 1017.5
20181219150949 33 201 0.0 2.0 0.00 0.00 0.00 77 1017.5
20181219150457 33 247 0.0 4.0 0.00 0.00 0.00 77 1017.5
20181219144847 32 247 0.0 2.0 0.00 0.00 0.00 77 1017.5
20181219144247 32 247 0.0 1.0 0.00 0.00 0.00 82 1017.5
20181219143747 31 247 0.0 1.0 0.00 0.00 0.00 83 1017.5
20181219143148 31 247 0.0 1.0 0.00 0.00 0.00 84 1017.5
20181219142858 30 247 0.0 2.0 0.00 0.00 0.00 87 1017.4
20181219131934 23 247 0.0 0.0 0.00 0.00 0.00 87 1017.1
20181219131433 23 247 0.0 1.0 0.00 0.00 0.00 87 1017.1
20181219131058 23 247 0.0 0.0 0.00 0.00 0.00 87 1017.1
20181219123759 22 247 0.0 0.0 0.00 0.00 0.00 87 1017.2
20181219122858 22 247 0.0 1.0 0.00 0.00 0.00 87 1017.4
20181219112358 20 247 0.0 0.0 0.00 0.00 0.00 87 1017.9
20181219105747 21 247 0.0 0.0 0.00 0.00 0.00 87 1018.2
20181219105247 21 247 0.0 0.0 0.00 0.00 0.00 87 1018.2
20181219104747 21 247 0.0 0.0 0.00 0.00 0.00 87 1018.2
20181219104257 21 247 0.0 0.0 0.00 0.00 0.00 87 1018.3
20181219102447 21 247 0.0 0.0 0.00 0.00 0.00 87 1018.2
20181219102059 21 247 0.0 0.0 0.00 0.00 0.00 87 1018.2
20181219095957 20 247 0.0 0.0 0.00 0.00 0.00 87 1018.2
20181219094257 20 247 0.0 0.0 0.00 0.00 0.00 87 1018.3
20181219093448 20 247 0.0 0.0 0.00 0.00 0.00 87 1018.4
20181219092947 20 247 0.0 0.0 0.00 0.00 0.00 87 1018.4
20181219092348 20 247 0.0 0.0 0.00 0.00 0.00 87 1018.4
20181219091847 21 247 0.0 0.0 0.00 0.00 0.00 87 1018.4
20181219091248 21 247 0.0 0.0 0.00 0.00 0.00 88 1018.4
20181219090747 21 247 0.0 0.0 0.00 0.00 0.00 88 1018.4
20181219090147 21 247 0.0 0.0 0.00 0.00 0.00 88 1018.4
20181219085548 20 247 0.0 0.0 0.00 0.00 0.00 88 1018.4
20181219085048 20 247 0.0 1.0 0.00 0.00 0.00 89 1018.4
20181219084448 20 247 0.0 0.0 0.00 0.00 0.00 88 1018.4
20181219083847 19 247 0.0 0.0 0.00 0.00 0.00 88 1018.6
20181219083347 19 247 0.0 0.0 0.00 0.00 0.00 87 1018.6
20181219082748 19 247 0.0 0.0 0.00 0.00 0.00 87 1018.7
20181219082147 18 247 0.0 0.0 0.00 0.00 0.00 87 1018.8
20181219081647 18 247 0.0 0.0 0.00 0.00 0.00 87 1018.8
20181219081047 18 247 0.0 0.0 0.00 0.00 0.00 87 1018.8
20181219080448 18 247 0.0 0.0 0.00 0.00 0.00 87 1018.8
20181219075854 18 247 0.0 0.0 0.00 0.00 0.00 87 1018.8
20181219075354 18 247 0.0 0.0 0.00 0.00 0.00 87 1018.8
20181219074854 18 247 0.0 0.0 0.00 0.00 0.00 87 1018.8
20181219074358 18 247 0.0 0.0 0.00 0.00 0.00 86 1018.8
20181219074058 18 247 0.0 0.0 0.00 0.00 0.00 86 1018.8
20181219065349 18 247 0.0 1.0 0.00 0.00 0.00 86 1019.0
20181219064957 18 247 0.0 0.0 0.00 0.00 0.00 86 1019.0
20181219053547 18 247 0.0 0.0 0.00 0.00 0.00 85 1019.5
20181219052947 18 247 0.0 0.0 0.00 0.00 0.00 85 1019.4
20181219052447 18 247 0.0 0.0 0.00 0.00 0.00 85 1019.3
20181219051847 18 247 0.0 0.0 0.00 0.00 0.00 85 1019.6
20181219051347 18 247 0.0 0.0 0.00 0.00 0.00 85 1019.5
20181219050757 18 247 0.0 0.0 0.00 0.00 0.00 82 1019.8
20181219044657 19 247 0.0 0.0 0.00 0.00 0.00 82 1019.8
20181219025958 18 247 0.0 0.0 0.00 0.00 0.00 82 1020.9
20181219021957 18 247 0.0 0.0 0.00 0.00 0.00 82 1021.1
20181219020546 18 247 0.0 0.0 0.00 0.00 0.00 82 1021.6
20181219015946 19 247 0.0 0.0 0.00 0.00 0.00 82 1021.6
20181219015346 18 247 0.0 0.0 0.00 0.00 0.00 82 1021.6
20181219014846 19 247 0.0 0.0 0.00 0.00 0.00 81 1021.6
20181219014246 19 247 0.0 0.0 0.00 0.00 0.00 81 1021.6
20181219013646 19 247 0.0 0.0 0.00 0.00 0.00 80 1021.6
20181219013047 19 247 0.0 0.0 0.00 0.00 0.00 80 1021.7
20181219012445 19 247 0.0 0.0 0.00 0.00 0.00 79 1021.6
20181219011846 19 247 0.0 0.0 0.00 0.00 0.00 80 1021.6
20181219011346 20 247 0.0 0.0 0.00 0.00 0.00 79 1021.8
20181219010846 20 247 0.0 0.0 0.00 0.00 0.00 79 1021.8
20181219010246 20 247 0.0 0.0 0.00 0.00 0.00 79 1021.9
20181219005745 20 247 0.0 0.0 0.00 0.00 0.00 79 1022.0
20181219005146 20 247 0.0 0.0 0.00 0.00 0.00 79 1022.0
20181219004547 20 247 0.0 0.0 0.00 0.00 0.00 78 1021.9
20181219004046 20 247 0.0 0.0 0.00 0.00 0.00 78 1022.0
20181219003545 20 247 0.0 0.0 0.00 0.00 0.00 77 1022.0
20181219002946 20 247 0.0 0.0 0.00 0.00 0.00 77 1022.0
20181219002445 20 247 0.0 0.0 0.00 0.00 0.00 77 1022.3
20181219001846 20 247 0.0 0.0 0.00 0.00 0.00 76 1022.0
20181219001346 20 247 0.0 0.0 0.00 0.00 0.00 76 1022.3
20181219000846 21 247 0.0 0.0 0.00 0.00 0.00 75 1022.0
20181219000346 21 247 0.0 0.0 0.00 0.00 0.00 75 1022.0
20181218235746 21 247 0.0 0.0 0.00 0.00 0.00 75 1022.0
20181218235146 21 247 0.0 0.0 0.00 0.00 0.00 74 1022.0
20181218234546 21 247 0.0 0.0 0.00 0.00 0.00 73 1022.0
20181218234045 22 247 0.0 0.0 0.00 0.00 0.00 73 1022.0
20181218233545 22 247 0.0 0.0 0.00 0.00 0.00 73 1022.0
20181218232946 22 247 0.0 0.0 0.00 0.00 0.00 73 1022.0
20181218232347 23 247 0.0 0.0 0.00 0.00 0.00 71 1022.0
20181218231845 23 247 0.0 0.0 0.00 0.00 0.00 71 1022.2
20181218231247 23 247 0.0 0.0 0.00 0.00 0.00 71 1022.2
20181218230646 24 247 0.0 0.0 0.00 0.00 0.00 71 1022.3
20181218230146 24 247 0.0 1.0 0.00 0.00 0.00 71 1022.0
20181218225546 24 247 0.0 0.0 0.00 0.00 0.00 71 1022.0
20181218225046 24 247 0.0 0.0 0.00 0.00 0.00 71 1022.0
20181218224446 24 247 0.0 0.0 0.00 0.00 0.00 70 1022.0
20181218223946 25 247 0.0 0.0 0.00 0.00 0.00 70 1021.9
20181218223445 25 247 0.0 0.0 0.00 0.00 0.00 70 1022.0
20181218222846 25 247 0.0 0.0 0.00 0.00 0.00 69 1022.0
20181218222246 25 247 0.0 0.0 0.00 0.00 0.00 68 1022.0
20181218221745 26 247 0.0 1.0 0.00 0.00 0.00 67 1022.0
20181218221146 26 247 0.0 1.0 0.00 0.00 0.00 67 1022.2
20181218220646 26 247 0.0 1.0 0.00 0.00 0.00 67 1022.2
20181218220047 26 247 0.0 1.0 0.00 0.00 0.00 67 1022.3
20181218215546 26 247 0.0 1.0 0.00 0.00 0.00 66 1022.0
20181218215045 26 247 0.0 1.0 0.00 0.00 0.00 66 1022.0
20181218214545 26 247 0.0 2.0 0.00 0.00 0.00 66 1022.0
20181218213950 27 247 0.0 2.0 0.00 0.00 0.00 66 1022.0
20181218213346 27 247 0.0 2.0 0.00 0.00 0.00 65 1021.8
20181218212845 27 247 0.0 1.0 0.00 0.00 0.00 65 1021.8
20181218212246 27 247 0.0 2.0 0.00 0.00 0.00 66 1021.8
20181218211646 27 247 0.0 2.0 0.00 0.00 0.00 65 1021.7
20181218211046 27 247 0.0 2.0 0.00 0.00 0.00 64 1021.8
20181218210446 27 247 0.0 2.0 0.00 0.00 0.00 64 1021.8
20181218205945 27 247 1.0 4.0 0.00 0.00 0.00 64 1021.8
20181218205349 27 247 0.0 2.0 0.00 0.00 0.00 64 1021.8
20181218204846 27 247 0.0 2.0 0.00 0.00 0.00 63 1022.0
20181218204346 27 247 1.0 5.0 0.00 0.00 0.00 64 1022.0
20181218203845 27 247 1.0 4.0 0.00 0.00 0.00 64 1021.9
20181218203345 28 247 1.0 2.0 0.00 0.00 0.00 63 1021.8
20181218202746 28 247 1.0 4.0 0.00 0.00 0.00 64 1021.8
20181218202246 27 247 0.0 3.0 0.00 0.00 0.00 64 1021.7
20181218201745 27 247 1.0 3.0 0.00 0.00 0.00 64 1021.6
20181218201245 27 247 0.0 4.0 0.00 0.00 0.00 63 1021.6
20181218200646 27 247 0.0 4.0 0.00 0.00 0.00 64 1021.6
20181218200050 27 247 0.0 4.0 0.00 0.00 0.00 64 1021.5
20181218195458 27 247 1.0 3.0 0.00 0.00 0.00 65 1021.5
20181218195057 27 247 1.0 4.0 0.00 0.00 0.00 65 1021.6
20181218194346 27 247 1.0 2.0 0.00 0.00 0.00 65 1021.6
20181218193746 27 247 1.0 2.0 0.00 0.00 0.00 65 1021.6
20181218193259 27 247 0.0 2.0 0.00 0.00 0.00 65 1021.6
20181218192646 27 247 0.0 2.0 0.00 0.00 0.00 65 1021.6
20181218192045 27 247 0.0 4.0 0.00 0.00 0.00 65 1021.5
20181218191446 27 247 0.0 2.0 0.00 0.00 0.00 65 1021.6
20181218190945 27 247 1.0 2.0 0.00 0.00 0.00 63 1021.6
20181218190350 27 247 0.0 2.0 0.00 0.00 0.00 65 1021.4
20181218185845 27 247 0.0 4.0 0.00 0.00 0.00 65 1021.5
20181218185245 27 247 1.0 4.0 0.00 0.00 0.00 65 1021.6
20181218184646 27 247 0.0 2.0 0.00 0.00 0.00 65 1021.5
20181218184146 27 247 0.0 2.0 0.00 0.00 0.00 64 1021.6
20181218183546 26 247 0.0 2.0 0.00 0.00 0.00 65 1021.7
20181218182946 26 247 1.0 3.0 0.00 0.00 0.00 65 1021.7
20181218182445 26 247 0.0 3.0 0.00 0.00 0.00 64 1021.9
20181218181846 26 247 0.0 4.0 0.00 0.00 0.00 64 1021.8
20181218181246 26 247 0.0 5.0 0.00 0.00 0.00 64 1021.8
20181218180646 26 247 1.0 4.0 0.00 0.00 0.00 66 1022.0
20181218180145 26 247 1.0 3.0 0.00 0.00 0.00 66 1022.0
20181218175645 26 247 1.0 4.0 0.00 0.00 0.00 65 1022.0
20181218175046 26 247 1.0 4.0 0.00 0.00 0.00 64 1022.0
20181218174447 26 247 1.0 4.0 0.00 0.00 0.00 65 1022.3
20181218173945 25 247 1.0 4.0 0.00 0.00 0.00 66 1022.3
20181218173348 26 247 1.0 5.0 0.00 0.00 0.00 64 1022.5
20181218172747 26 247 1.0 4.0 0.00 0.00 0.00 65 1022.3
20181218172245 26 247 0.0 4.0 0.00 0.00 0.00 66 1022.3
20181218171745 25 247 0.0 4.0 0.00 0.00 0.00 66 1022.4
20181218171145 25 247 1.0 5.0 0.00 0.00 0.00 66 1022.4
20181218170645 25 247 1.0 4.0 0.00 0.00 0.00 66 1022.3
20181218170045 25 247 1.0 5.0 0.00 0.00 0.00 68 1022.3
20181218165446 26 247 0.0 5.0 0.00 0.00 0.00 68 1022.5
20181218164945 25 247 1.0 5.0 0.00 0.00 0.00 68 1022.3
20181218164445 25 247 1.0 5.0 0.00 0.00 0.00 67 1022.3
20181218163845 25 247 1.0 4.0 0.00 0.00 0.00 67 1022.3
20181218163345 25 247 1.0 5.0 0.00 0.00 0.00 67 1022.3
20181218162857 25 247 2.0 7.0 0.00 0.00 0.00 67 1022.3
20181218162600 25 247 1.0 5.0 0.00 0.00 0.00 68 1022.5